SWIFT

Last updated on Thu Dec 18 2025 00:02:41 GMT+0000 (Coordinated Universal Time)

1 28485U 04047A 25351.62800181 .00031944 00000+0 51681-3 0 9998 2 28485 20.5526 127.7779 0003896 348.1702 11.8649 15.50887071158476
UTC large
Height (km)
Speed (km/s)
/
Latitude / Longitude
Inclination (degrees)
Orbital Period (minutes)
Azimuth
Elevation
Range (km)
Doppler Factor

Next 0 passes for location: London (51.5072 / 0.1276)

Sorry there are no passes over London.